Waukesha, WI

4:48 AM CST on December 04, 2016 (GMT -0600)
Waukesha County

Weather History for KUES - September, 2012

Change the Weather History Date:

Tuesday, September 4, 2012

  Actual Average Record
Temperature  
Mean Temperature 74 °F -  
Max Temperature 87 °F 77 °F 91 °F (1983)
Min Temperature 60 °F 55 °F 34 °F (1987)
Cooling Degree Days 8    
Growing Degree Days 24 (Base 50)    
Moisture  
Dew Point 63 °F    
Average Humidity 79    
Maximum Humidity 100    
Minimum Humidity 40    
Precipitation  
Precipitation 0.21 in - - ()
Sea Level Pressure  
Sea Level Pressure 29.90 in    
Wind  
Wind Speed 5 mph (ESE)    
Max Wind Speed 26 mph    
Max Gust Speed 41 mph    
Visibility 10 miles    
Events Rain    
Averages and records for this station are not official NWS values.
T = Trace of Precipitation, MM = Missing Value Source: NWS Daily Summary

Daily Weather History Graph

Daily Weather History Graph

Search for Another Location

Airport or City:

Trip Planner

Search our weather history database for the weather conditions in past years. The results will help you decide how hot, cold, wet, or windy it might be!

Date:

Astronomy

Sep. 04, 2012 Rise Set
Actual Time 6:21 AM CDT 7:21 PM CDT
Civil Twilight 5:52 AM CDT 7:50 PM CDT
Nautical Twilight 5:17 AM CDT 8:25 PM CDT
Astronomical Twilight 4:41 AM CDT 9:01 PM CDT
Moon 9:05 PM CDT 10:36 AM CDT
Length of Visible Light 13h 58m
Length of Day
13h 00m
Waning Gibbous, 83% of the Moon is Illuminated
Sep 4
Waning Gibbous
Sep 8
Last Quarter
Sep 15
New
Sep 22
First Quarter
Sep 29
Full

Hourly Weather History & Observations

Time (CDT) Temp. Heat Index Dew Point Humidity Pressure Visibility Wind Dir Wind Speed Gust Speed Precip Events Conditions
12:15 AM 71.6 °F - 68.0 °F 88% 29.92 in 10.0 mi NE 4.6 mph - N/A   Overcast
12:35 AM 71.6 °F - 64.4 °F 78% 29.91 in 10.0 mi ENE 4.6 mph - N/A   Overcast
12:55 AM 71.6 °F - 64.4 °F 78% 29.91 in 10.0 mi Calm Calm - N/A   Overcast
1:15 AM 71.6 °F - 64.4 °F 78% 29.91 in 10.0 mi Calm Calm - N/A   Scattered Clouds
1:35 AM 69.8 °F - 64.4 °F 83% 29.90 in 10.0 mi ESE 5.8 mph - N/A   Scattered Clouds
1:55 AM 69.8 °F - 64.4 °F 83% 29.91 in 10.0 mi ESE 4.6 mph - N/A   Overcast
2:15 AM 69.8 °F - 64.4 °F 83% 29.92 in 10.0 mi ESE 6.9 mph - N/A   Overcast
2:35 AM 69.8 °F - 64.4 °F 83% 29.92 in 10.0 mi ESE 6.9 mph - N/A   Overcast
2:55 AM 68.0 °F - 64.4 °F 88% 29.92 in 10.0 mi ESE 6.9 mph - N/A   Overcast
3:15 AM 68.0 °F - 64.4 °F 88% 29.93 in 10.0 mi SE 4.6 mph - N/A   Mostly Cloudy
3:35 AM 68.0 °F - 64.4 °F 88% 29.92 in 10.0 mi ESE 4.6 mph - N/A   Overcast
3:55 AM 68.0 °F - 64.4 °F 88% 29.92 in 10.0 mi Calm Calm - N/A   Scattered Clouds
4:15 AM 66.2 °F - 64.4 °F 94% 29.92 in 10.0 mi Calm Calm - N/A   Clear
4:35 AM 66.2 °F - 64.4 °F 94% 29.91 in 10.0 mi Calm Calm - N/A   Clear
4:55 AM 64.4 °F - 64.4 °F 100% 29.91 in 10.0 mi Calm Calm - N/A   Clear
5:15 AM 64.4 °F - 62.6 °F 94% 29.92 in 10.0 mi Calm Calm - N/A   Clear
5:35 AM 64.4 °F - 62.6 °F 94% 29.92 in 7.0 mi Calm Calm - N/A   Clear
5:45 AM 64.4 °F - 62.6 °F 94% 29.91 in 10.0 mi Calm Calm - N/A   Partly Cloudy
6:45 AM 66.2 °F - 64.4 °F 94% 29.92 in 7.0 mi SW 4.6 mph - N/A   Partly Cloudy
7:45 AM 68.0 °F - 66.2 °F 94% 29.93 in 10.0 mi WSW 4.6 mph - N/A   Clear
8:45 AM 73.4 °F - 64.4 °F 73% 29.92 in 10.0 mi WSW 4.6 mph - N/A   Clear
10:45 AM 80.6 °F 82.7 °F 66.2 °F 61% 29.91 in 10.0 mi NW 6.9 mph - N/A   Partly Cloudy
11:45 AM 82.4 °F 83.9 °F 64.4 °F 54% 29.91 in 10.0 mi NW 4.6 mph - N/A   Scattered Clouds
12:45 PM 84.2 °F 85.6 °F 64.4 °F 51% 29.89 in 10.0 mi NNW 3.5 mph - N/A   Mostly Cloudy
1:45 PM 87.8 °F 87.6 °F 60.8 °F 40% 29.88 in 10.0 mi West 4.6 mph - N/A   Scattered Clouds
2:45 PM 86.0 °F 86.1 °F 60.8 °F 43% 29.86 in 10.0 mi West 3.5 mph - N/A   Scattered Clouds
3:45 PM 86.0 °F 86.6 °F 62.6 °F 45% 29.86 in 10.0 mi ENE 9.2 mph - N/A   Scattered Clouds
4:45 PM 82.4 °F 84.6 °F 66.2 °F 58% 29.86 in 10.0 mi ESE 8.1 mph - N/A   Clear
5:45 PM 80.6 °F 82.7 °F 66.2 °F 61% 29.85 in 10.0 mi ESE 10.4 mph - N/A   Clear
6:45 PM 77.0 °F - 66.2 °F 69% 29.84 in 10.0 mi SE 8.1 mph - N/A   Clear
7:45 PM 75.2 °F - 66.2 °F 73% 29.86 in 10.0 mi SE 8.1 mph - N/A   Clear
8:45 PM 73.4 °F - 64.4 °F 73% 29.85 in 10.0 mi ESE 8.1 mph - N/A   Clear
9:15 PM 71.6 °F - 64.4 °F 78% 29.88 in 10.0 mi WSW 6.9 mph - N/A   Scattered Clouds
9:35 PM 66.2 °F - 55.4 °F 68% 29.93 in 10.0 mi West 26.5 mph 41.4 mph N/A Rain Light Rain
9:55 PM 62.6 °F - 59.0 °F 88% 29.95 in 7.0 mi West 15.0 mph 23.0 mph 0.11 in Rain Heavy Rain
10:15 PM 62.6 °F - 59.0 °F 88% 29.98 in 10.0 mi WNW 11.5 mph - 0.03 in Rain Light Rain
11:15 PM 62.6 °F - 59.0 °F 88% 29.96 in 4.0 mi ENE 4.6 mph - 0.05 in Rain Rain
11:35 PM 60.8 °F - 59.0 °F 94% 29.93 in 10.0 mi East 5.8 mph - 0.07 in Rain Light Rain
11:55 PM 60.8 °F - 59.0 °F 94% 29.82 in 10.0 mi East 18.4 mph - 0.07 in   Scattered Clouds